Estherville, IA

12:55 PM CDT on May 21, 2018 (GMT -0500)
Estherville Municipal

Weather History for KEST - September, 2012

Change the Weather History Date:

Tuesday, September 18, 2012

  Actual Average Record
Temperature  
Mean Temperature 49 °F 60 °F  
Max Temperature 62 °F 73 °F 91 °F (1988)
Min Temperature 35 °F 47 °F 35 °F (2012)
Degree Days  
Heating Degree Days 16 6  
Month to date heating degree days 45 70  
Since 1 July heating degree days 76 102  
Cooling Degree Days 0 1  
Month to date cooling degree days 50 38  
Year to date cooling degree days 886 578  
Moisture  
Dew Point 34 °F    
Average Humidity 61    
Maximum Humidity 92    
Minimum Humidity 29    
Precipitation  
Precipitation 0.00 in 0.12 in 2.27 in (2017)
Month to date precipitation 0.21 1.93  
Sea Level Pressure  
Sea Level Pressure 30.02 in    
Wind  
Wind Speed 8 mph (WNW)    
Max Wind Speed 18 mph    
Max Gust Speed 23 mph    
Visibility 10 miles    
Events      
T = Trace of Precipitation, MM = Missing Value Source: NWS Daily Summary

Daily Weather History Graph

Daily Weather History Graph

Search for Another Location

Airport or City:

Astronomy

Sep. 18, 2012 Rise Set
Actual Time 7:02 AM CDT 7:22 PM CDT
Civil Twilight 6:33 AM CDT 7:51 PM CDT
Nautical Twilight 6:00 AM CDT 8:24 PM CDT
Astronomical Twilight 5:25 AM CDT 8:59 PM CDT
Moon 10:10 AM CDT (9/18) 8:38 PM CDT (9/18)
Length of Visible Light 13h 17m
Length of Day
12h 20m
Waxing Crescent, 9% of the Moon is Illuminated
Sep 18
Waxing Crescent
Sep 22
First Quarter
Sep 29
Full
Oct 8
Last Quarter
Oct 15
New

Hourly Weather History & Observations

Time (CDT) Temp. Windchill Dew Point Humidity Pressure Visibility Wind Dir Wind Speed Gust Speed Precip Events Conditions
12:52 AM 41.0 °F 35.8 °F 37.9 °F 89% 30.06 in 10.0 mi NW 8.1 mph - N/A   Clear
1:52 AM 39.9 °F 34.5 °F 37.0 °F 89% 30.06 in 10.0 mi WNW 8.1 mph - N/A   Clear
2:52 AM 39.0 °F 33.4 °F 36.0 °F 89% 30.06 in 10.0 mi NW 8.1 mph - N/A   Clear
4:52 AM 36.0 °F 30.3 °F 33.1 °F 89% 30.05 in 10.0 mi WNW 6.9 mph - N/A   Clear
5:52 AM 37.0 °F 31.0 °F 34.0 °F 89% 30.07 in 10.0 mi WNW 8.1 mph - N/A   Clear
6:52 AM 35.1 °F 28.6 °F 33.1 °F 92% 30.09 in 10.0 mi NW 8.1 mph - N/A   Clear
7:52 AM 39.9 °F 34.5 °F 36.0 °F 86% 30.08 in 10.0 mi NW 8.1 mph - N/A   Clear
9:52 AM 50.0 °F - 39.0 °F 66% 30.09 in 10.0 mi NNW 11.5 mph - N/A   Clear
10:52 AM 55.0 °F - 35.1 °F 47% 30.08 in 10.0 mi NNW 11.5 mph - N/A   Clear
11:52 AM 57.0 °F - 30.9 °F 37% 30.08 in 10.0 mi NW 12.7 mph 20.7 mph N/A   Clear
12:52 PM 59.0 °F - 30.0 °F 33% 30.06 in 10.0 mi NNW 10.4 mph 19.6 mph N/A   Clear
1:52 PM 61.0 °F - 28.0 °F 29% 30.04 in 10.0 mi WNW 12.7 mph 19.6 mph N/A   Clear
2:52 PM 61.0 °F - 28.0 °F 29% 30.02 in 10.0 mi WNW 9.2 mph - N/A   Clear
3:52 PM 61.0 °F - 28.9 °F 30% 30.01 in 10.0 mi WSW 10.4 mph - N/A   Clear
4:52 PM 60.1 °F - 28.0 °F 30% 29.99 in 10.0 mi Calm Calm - N/A   Overcast
5:52 PM 60.1 °F - 30.9 °F 33% 29.99 in 10.0 mi SSW 4.6 mph - N/A   Overcast
6:52 PM 57.9 °F - 34.0 °F 41% 29.98 in 10.0 mi SSE 3.5 mph - N/A   Overcast
7:52 PM 54.0 °F - 37.9 °F 55% 29.97 in 10.0 mi SSE 5.8 mph - N/A   Overcast
8:52 PM 53.1 °F - 37.0 °F 55% 29.96 in 10.0 mi SSE 6.9 mph - N/A   Overcast
9:52 PM 54.0 °F - 35.1 °F 49% 29.94 in 10.0 mi SE 8.1 mph - N/A   Overcast
10:52 PM 52.0 °F - 34.0 °F 50% 29.92 in 10.0 mi SSE 9.2 mph - N/A   Clear
11:52 PM 50.0 °F - 35.1 °F 57% 29.90 in 10.0 mi South 9.2 mph - N/A   Clear